Location: Hains Lake
(37.8540°N, 99.8578°W)
Time: 16:53:12
(UTC+00:00)

Vanguard 1 - Pass Details

Date: 28 November 2022
Orbit: 649 x 3831 km, 34.2° (Epoch: 31 January)

Event Time Altitude Azimuth Distance (km) Brightness Sun altitude
Exits shadow 11:10:34 33° 224° (SW) 2,213 11.5 -27.7°
Maximum altitude 11:12:25 37° 200° (SSW) 2,288 11.7 -27.4°
Drops below altitude 10° 11:23:47 10° 140° (SE) 5,066 14.3 -25.1°
Sets 11:29:16 0° 134° (SE) 6,619 15.2 -24.1°
